CCAYT SCEL-SCCF

Flight info

Callsign CCAYT
Flight time 1h 49m
Altitude 43000
Route N0428F430 DILO1L DILOK UQ814 MARGU MARG3A
Aircraft C25C/M-SDE2E3FGHRWXY/LB1

Departure

Time 2026-04-20 15:15
Airport Comodoro Arturo Merino Benítez International Airport (SCEL)

Arrival

Time 2026-04-20 17:04
Airport El Loa Airport (SCCF)
Time Latitude Longitude Altitude Speed Heading
2026-04-20 15:02 -33.39223 -70.79204 1566 ft 0 kts 360°
2026-04-20 15:07 -33.39222 -70.79204 1561 ft 0 kts
2026-04-20 15:08 -33.39218 -70.79201 1558 ft 2 kts 37°
2026-04-20 15:08 -33.39202 -70.79150 1558 ft 8 kts 36°
2026-04-20 15:08 -33.39130 -70.79150 1558 ft 13 kts 356°
2026-04-20 15:08 -33.39034 -70.79141 1558 ft 14 kts 41°
2026-04-20 15:09 -33.39021 -70.79024 1558 ft 15 kts 89°
2026-04-20 15:09 -33.38991 -70.78919 1558 ft 14 kts
2026-04-20 15:09 -33.38882 -70.78923 1558 ft 17 kts 359°
2026-04-20 15:09 -33.38766 -70.78929 1558 ft 16 kts 358°
2026-04-20 15:10 -33.38665 -70.78934 1558 ft 10 kts
2026-04-20 15:10 -33.38637 -70.78876 1558 ft 9 kts 90°
2026-04-20 15:10 -33.38599 -70.78832 1558 ft 10 kts 356°
2026-04-20 15:10 -33.38507 -70.78837 1558 ft 17 kts 357°
2026-04-20 15:11 -33.38496 -70.78770 1558 ft 13 kts 148°
2026-04-20 15:11 -33.38569 -70.78713 1558 ft 12 kts 147°
2026-04-20 15:11 -33.38638 -70.78660 1558 ft 12 kts 147°
2026-04-20 15:11 -33.38706 -70.78612 1557 ft 8 kts 165°
2026-04-20 15:12 -33.38724 -70.78611 1557 ft 0 kts 178°
2026-04-20 15:14 -33.39075 -70.78591 1558 ft 105 kts 178°
2026-04-20 15:14 -33.40011 -70.78549 1988 ft 151 kts 177°
2026-04-20 15:15 -33.41131 -70.78499 2934 ft 167 kts 179°
2026-04-20 15:15 -33.42352 -70.78418 3799 ft 189 kts 178°
2026-04-20 15:15 -33.43762 -70.78340 4527 ft 215 kts 177°
2026-04-20 15:15 -33.45373 -70.78438 5246 ft 252 kts 192°
2026-04-20 15:16 -33.47132 -70.79107 6026 ft 274 kts 209°
2026-04-20 15:16 -33.48729 -70.80365 7070 ft 280 kts 224°
2026-04-20 15:16 -33.49994 -70.82136 8169 ft 278 kts 241°
2026-04-20 15:16 -33.50849 -70.84185 9238 ft 278 kts 252°
2026-04-20 15:17 -33.51486 -70.86372 10303 ft 274 kts 268°
2026-04-20 15:17 -33.51516 -70.88610 11304 ft 272 kts 280°
2026-04-20 15:17 -33.50967 -70.90848 11682 ft 290 kts 298°
2026-04-20 15:17 -33.49776 -70.92882 12150 ft 304 kts 316°
2026-04-20 15:18 -33.48136 -70.94433 13150 ft 305 kts 329°
2026-04-20 15:18 -33.46195 -70.95526 14037 ft 309 kts 333°
2026-04-20 15:18 -33.44249 -70.96661 14791 ft 313 kts 332°
2026-04-20 15:18 -33.42285 -70.97775 15548 ft 316 kts 332°
2026-04-20 15:19 -33.40272 -70.98916 16304 ft 321 kts 332°
2026-04-20 15:19 -33.38162 -70.99861 17008 ft 328 kts 339°
2026-04-20 15:19 -33.35939 -71.00510 17786 ft 335 kts 345°
2026-04-20 15:19 -33.33588 -71.00834 18503 ft 344 kts 351°
2026-04-20 15:20 -33.31188 -71.00788 19136 ft 353 kts 357°
2026-04-20 15:20 -33.28699 -71.00349 19837 ft 362 kts
2026-04-20 15:20 -33.26273 -70.99518 20522 ft 373 kts 12°
2026-04-20 15:20 -33.23852 -70.98245 21213 ft 384 kts 20°
2026-04-20 15:21 -33.21553 -70.96518 21819 ft 395 kts 28°
2026-04-20 15:21 -33.19331 -70.94597 22441 ft 399 kts 28°
2026-04-20 15:21 -33.17048 -70.92651 23072 ft 404 kts 28°
2026-04-20 15:21 -33.14755 -70.90692 23655 ft 409 kts 28°
2026-04-20 15:22 -33.12425 -70.88698 24215 ft 413 kts 28°
2026-04-20 15:22 -33.10101 -70.86711 24689 ft 417 kts 27°
2026-04-20 15:22 -33.07727 -70.84683 25159 ft 420 kts 27°
2026-04-20 15:22 -33.05337 -70.82645 25612 ft 423 kts 27°
2026-04-20 15:23 -33.02985 -70.80524 26022 ft 428 kts 29°
2026-04-20 15:23 -33.00591 -70.78409 26384 ft 430 kts 27°
2026-04-20 15:23 -32.98166 -70.76315 26766 ft 433 kts 27°
2026-04-20 15:23 -32.95743 -70.74172 27144 ft 437 kts 28°
2026-04-20 15:24 -32.93302 -70.72001 27497 ft 437 kts 26°
2026-04-20 15:24 -32.90607 -70.70410 27788 ft 421 kts 10°
2026-04-20 15:24 -32.87813 -70.69611 28107 ft 407 kts 357°
2026-04-20 15:24 -32.85017 -70.69387 28587 ft 401 kts 354°
2026-04-20 15:25 -32.82262 -70.69196 29088 ft 398 kts 353°
2026-04-20 15:25 -32.79507 -70.69025 29577 ft 396 kts 353°
2026-04-20 15:25 -32.76748 -70.68846 30089 ft 394 kts 352°
2026-04-20 15:25 -32.74014 -70.68656 30540 ft 393 kts 352°
2026-04-20 15:26 -32.71296 -70.68475 30931 ft 392 kts 352°
2026-04-20 15:26 -32.68569 -70.68296 31317 ft 391 kts 351°
2026-04-20 15:26 -32.65868 -70.68116 31731 ft 390 kts 351°
2026-04-20 15:26 -32.63166 -70.67936 32120 ft 389 kts 351°
2026-04-20 15:27 -32.60483 -70.67757 32521 ft 388 kts 351°
2026-04-20 15:27 -32.57788 -70.67579 32920 ft 388 kts 350°
2026-04-20 15:27 -32.55098 -70.67402 33334 ft 387 kts 350°
2026-04-20 15:27 -32.52414 -70.67219 33732 ft 384 kts 350°
2026-04-20 15:28 -32.49750 -70.67043 33973 ft 384 kts 349°
2026-04-20 15:28 -32.47086 -70.66874 34305 ft 385 kts 349°
2026-04-20 15:28 -32.44375 -70.66694 34636 ft 386 kts 349°
2026-04-20 15:28 -32.41696 -70.66513 34915 ft 386 kts 349°
2026-04-20 15:29 -32.39012 -70.66335 35209 ft 387 kts 349°
2026-04-20 15:29 -32.36328 -70.66160 35516 ft 387 kts 349°
2026-04-20 15:29 -32.33637 -70.65983 35793 ft 387 kts 350°
2026-04-20 15:29 -32.30962 -70.65805 36040 ft 388 kts 349°
2026-04-20 15:30 -32.28254 -70.65627 36267 ft 389 kts 350°
2026-04-20 15:30 -32.25557 -70.65448 36543 ft 388 kts 349°
2026-04-20 15:30 -32.22867 -70.65272 36750 ft 389 kts 349°
2026-04-20 15:30 -32.20159 -70.65093 36941 ft 390 kts 350°
2026-04-20 15:31 -32.17431 -70.64916 37117 ft 391 kts 349°
2026-04-20 15:31 -32.14743 -70.64737 37335 ft 390 kts 350°
2026-04-20 15:31 -32.12038 -70.64558 37569 ft 390 kts 350°
2026-04-20 15:31 -32.09318 -70.64381 37810 ft 389 kts 349°
2026-04-20 15:32 -32.06614 -70.64203 38031 ft 390 kts 349°
2026-04-20 15:32 -32.03924 -70.64026 38302 ft 389 kts 349°
2026-04-20 15:32 -32.01210 -70.63848 38530 ft 389 kts 349°
2026-04-20 15:32 -31.98510 -70.63672 38812 ft 388 kts 349°
2026-04-20 15:33 -31.95817 -70.63496 38968 ft 390 kts 349°
2026-04-20 15:33 -31.93080 -70.63321 39193 ft 389 kts 349°
2026-04-20 15:33 -31.90375 -70.63202 39347 ft 388 kts 348°
2026-04-20 15:33 -31.87691 -70.63093 39503 ft 389 kts 348°
2026-04-20 15:34 -31.84999 -70.62973 39695 ft 388 kts 349°
2026-04-20 15:34 -31.82303 -70.62850 39902 ft 386 kts 350°
2026-04-20 15:34 -31.79607 -70.62736 40026 ft 387 kts 349°
2026-04-20 15:34 -31.76916 -70.62622 40195 ft 388 kts 349°
2026-04-20 15:35 -31.74215 -70.62508 40393 ft 389 kts 349°
2026-04-20 15:35 -31.71526 -70.62388 40532 ft 390 kts 349°
2026-04-20 15:35 -31.68779 -70.62268 40743 ft 391 kts 349°
2026-04-20 15:35 -31.66083 -70.62150 41003 ft 389 kts 349°
2026-04-20 15:36 -31.63376 -70.62035 41220 ft 388 kts 349°
2026-04-20 15:36 -31.60667 -70.61919 41458 ft 388 kts 350°
2026-04-20 15:36 -31.58003 -70.61803 41656 ft 388 kts 350°
2026-04-20 15:37 -31.52590 -70.61570 41810 ft 388 kts 350°
2026-04-20 15:37 -31.49898 -70.61453 41984 ft 387 kts 350°
2026-04-20 15:37 -31.48104 -70.61376 42075 ft 387 kts 350°
2026-04-20 15:37 -31.44516 -70.61222 42261 ft 387 kts 350°
2026-04-20 15:38 -31.42719 -70.61146 42398 ft 387 kts 350°
2026-04-20 15:38 -31.40019 -70.61029 42591 ft 387 kts 351°
2026-04-20 15:38 -31.37341 -70.60912 42922 ft 386 kts 351°
2026-04-20 15:38 -31.34636 -70.60777 43119 ft 390 kts 353°
2026-04-20 15:39 -31.31928 -70.60373 43162 ft 399 kts 359°
2026-04-20 15:39 -31.26421 -70.59069 43208 ft 400 kts
2026-04-20 15:40 -31.20974 -70.57804 43206 ft 399 kts
2026-04-20 15:40 -31.15542 -70.56524 43205 ft 401 kts
2026-04-20 15:41 -31.10082 -70.55248 43192 ft 401 kts
2026-04-20 15:41 -31.04635 -70.53969 43198 ft 399 kts
2026-04-20 15:42 -30.99190 -70.52699 43203 ft 399 kts
2026-04-20 15:42 -30.93749 -70.51429 43204 ft 399 kts
2026-04-20 15:43 -30.88310 -70.50158 43207 ft 402 kts
2026-04-20 15:43 -30.82782 -70.48874 43194 ft 403 kts
2026-04-20 15:44 -30.77259 -70.47590 43196 ft 407 kts
2026-04-20 15:44 -30.71732 -70.46303 43202 ft 407 kts
2026-04-20 15:45 -30.66172 -70.45012 43197 ft 407 kts
2026-04-20 15:45 -30.60600 -70.43720 43207 ft 405 kts
2026-04-20 15:46 -30.55103 -70.42449 43212 ft 404 kts
2026-04-20 15:46 -30.49572 -70.41169 43200 ft 403 kts
2026-04-20 15:47 -30.44105 -70.39906 43206 ft 401 kts
2026-04-20 15:47 -30.38614 -70.38640 43205 ft 402 kts
2026-04-20 15:48 -30.33136 -70.37378 43212 ft 403 kts
2026-04-20 15:48 -30.27620 -70.36109 43228 ft 406 kts
2026-04-20 15:49 -30.22003 -70.34817 43201 ft 411 kts
2026-04-20 15:49 -30.16413 -70.33532 43206 ft 410 kts
2026-04-20 15:50 -30.10849 -70.32255 43216 ft 409 kts
2026-04-20 15:50 -30.05248 -70.30973 43203 ft 409 kts
2026-04-20 15:51 -29.99647 -70.29690 43199 ft 409 kts
2026-04-20 15:51 -29.94100 -70.28423 43203 ft 407 kts
2026-04-20 15:52 -29.88534 -70.27153 43198 ft 408 kts
2026-04-20 15:52 -29.82979 -70.25882 43193 ft 406 kts
2026-04-20 15:53 -29.74701 -70.23999 43210 ft 402 kts
2026-04-20 15:53 -29.69226 -70.22755 43205 ft 401 kts
2026-04-20 15:54 -29.63762 -70.21512 43210 ft 399 kts
2026-04-20 15:54 -29.58271 -70.20267 43213 ft 400 kts
2026-04-20 15:55 -29.52849 -70.19037 43220 ft 400 kts
2026-04-20 15:55 -29.47387 -70.17800 43233 ft 396 kts
2026-04-20 15:56 -29.41964 -70.16575 43229 ft 399 kts
2026-04-20 15:56 -29.36510 -70.15344 43222 ft 399 kts
2026-04-20 15:57 -29.31067 -70.14113 43228 ft 399 kts
2026-04-20 15:57 -29.25609 -70.12884 43228 ft 401 kts
2026-04-20 15:58 -29.20144 -70.11652 43223 ft 402 kts
2026-04-20 15:58 -29.14656 -70.10419 43218 ft 404 kts
2026-04-20 15:59 -29.09088 -70.09167 43210 ft 406 kts
2026-04-20 15:59 -29.03568 -70.07929 43225 ft 409 kts
2026-04-20 16:00 -28.97915 -70.06661 43213 ft 412 kts
2026-04-20 16:00 -28.92271 -70.05396 43210 ft 415 kts
2026-04-20 16:01 -28.86588 -70.04125 43204 ft 416 kts
2026-04-20 16:01 -28.80936 -70.02858 43210 ft 413 kts
2026-04-20 16:02 -28.75322 -70.01606 43222 ft 408 kts
2026-04-20 16:02 -28.69752 -70.00368 43220 ft 409 kts
2026-04-20 16:03 -28.64206 -69.99129 43227 ft 407 kts
2026-04-20 16:03 -28.58638 -69.97893 43218 ft 406 kts
2026-04-20 16:04 -28.53122 -69.96667 43216 ft 408 kts
2026-04-20 16:04 -28.47521 -69.95498 43232 ft 406 kts 359°
2026-04-20 16:05 -28.41963 -69.94446 43229 ft 404 kts 359°
2026-04-20 16:05 -28.36443 -69.93398 43216 ft 404 kts 359°
2026-04-20 16:06 -28.30893 -69.92348 43211 ft 405 kts 359°
2026-04-20 16:06 -28.25320 -69.91291 43197 ft 405 kts 360°
2026-04-20 16:07 -28.19736 -69.90234 43195 ft 405 kts 360°
2026-04-20 16:07 -28.14204 -69.89189 43191 ft 401 kts 359°
2026-04-20 16:08 -28.08714 -69.88161 43181 ft 403 kts 360°
2026-04-20 16:08 -28.03158 -69.87112 43168 ft 404 kts 360°
2026-04-20 16:09 -27.97594 -69.86067 43173 ft 404 kts 360°
2026-04-20 16:09 -27.92039 -69.85023 43164 ft 405 kts 360°
2026-04-20 16:10 -27.86475 -69.83981 43166 ft 406 kts 360°
2026-04-20 16:10 -27.80899 -69.82934 43156 ft 405 kts
2026-04-20 16:11 -27.75362 -69.81898 43158 ft 404 kts 360°
2026-04-20 16:11 -27.69818 -69.80862 43159 ft 404 kts 360°
2026-04-20 16:12 -27.64252 -69.79822 43157 ft 405 kts 360°
2026-04-20 16:12 -27.58694 -69.78785 43157 ft 406 kts
2026-04-20 16:13 -27.53094 -69.77740 43154 ft 406 kts
2026-04-20 16:13 -27.47568 -69.76240 43156 ft 412 kts
2026-04-20 16:14 -27.41995 -69.74673 43156 ft 413 kts
2026-04-20 16:14 -27.36432 -69.73085 43157 ft 413 kts
2026-04-20 16:15 -27.30870 -69.71510 43158 ft 413 kts
2026-04-20 16:15 -27.25295 -69.69931 43159 ft 414 kts
2026-04-20 16:16 -27.19721 -69.68350 43162 ft 412 kts
2026-04-20 16:16 -27.14128 -69.66771 43130 ft 411 kts
2026-04-20 16:17 -27.08618 -69.65213 43160 ft 411 kts
2026-04-20 16:17 -27.03042 -69.63641 43157 ft 412 kts
2026-04-20 16:18 -26.97504 -69.62077 43175 ft 410 kts
2026-04-20 16:18 -26.92942 -69.60792 43163 ft 405 kts
2026-04-20 16:19 -26.87502 -69.59261 43173 ft 400 kts
2026-04-20 16:19 -26.82100 -69.57746 43164 ft 403 kts
2026-04-20 16:20 -26.76616 -69.56204 43171 ft 406 kts
2026-04-20 16:20 -26.71153 -69.54671 43171 ft 408 kts
2026-04-20 16:21 -26.65610 -69.53119 43183 ft 409 kts
2026-04-20 16:21 -26.60102 -69.51574 43183 ft 410 kts
2026-04-20 16:22 -26.54579 -69.50030 43181 ft 411 kts
2026-04-20 16:22 -26.49005 -69.48472 43189 ft 412 kts
2026-04-20 16:23 -26.43422 -69.46913 43185 ft 414 kts
2026-04-20 16:23 -26.37827 -69.45353 43186 ft 414 kts
2026-04-20 16:24 -26.32250 -69.43799 43179 ft 415 kts
2026-04-20 16:24 -26.26661 -69.42243 43168 ft 415 kts
2026-04-20 16:25 -26.21018 -69.40674 43170 ft 415 kts
2026-04-20 16:25 -26.15407 -69.39116 43164 ft 415 kts
2026-04-20 16:26 -26.09811 -69.37562 43171 ft 415 kts
2026-04-20 16:26 -26.04208 -69.36009 43170 ft 415 kts
2026-04-20 16:27 -25.98635 -69.34465 43170 ft 415 kts
2026-04-20 16:27 -25.93021 -69.32912 43175 ft 414 kts
2026-04-20 16:28 -25.87456 -69.31373 43176 ft 414 kts
2026-04-20 16:28 -25.81825 -69.29819 43176 ft 414 kts
2026-04-20 16:29 -25.76265 -69.28285 43174 ft 415 kts
2026-04-20 16:29 -25.70671 -69.26742 43175 ft 415 kts
2026-04-20 16:30 -25.65052 -69.25197 43176 ft 415 kts
2026-04-20 16:30 -25.59438 -69.23651 43176 ft 415 kts
2026-04-20 16:31 -25.53819 -69.22540 43179 ft 409 kts
2026-04-20 16:31 -25.48226 -69.21540 43178 ft 409 kts
2026-04-20 16:32 -25.42573 -69.20556 43182 ft 408 kts
2026-04-20 16:32 -25.36980 -69.19571 43184 ft 408 kts
2026-04-20 16:33 -25.31362 -69.18587 43187 ft 408 kts
2026-04-20 16:33 -25.25754 -69.17604 43185 ft 408 kts
2026-04-20 16:34 -25.20133 -69.16622 43186 ft 408 kts
2026-04-20 16:34 -25.14570 -69.15649 43188 ft 407 kts
2026-04-20 16:35 -25.08948 -69.14668 43183 ft 407 kts
2026-04-20 16:35 -25.03358 -69.13692 43187 ft 407 kts
2026-04-20 16:36 -24.97775 -69.12720 43176 ft 407 kts
2026-04-20 16:36 -24.92177 -69.11745 43180 ft 407 kts
2026-04-20 16:37 -24.86581 -69.10772 43177 ft 407 kts
2026-04-20 16:37 -24.80974 -69.09795 43170 ft 407 kts
2026-04-20 16:38 -24.75381 -69.08820 43161 ft 406 kts
2026-04-20 16:38 -24.69828 -69.07820 43154 ft 406 kts
2026-04-20 16:39 -24.64221 -69.06827 43154 ft 406 kts
2026-04-20 16:39 -24.58640 -69.05833 42995 ft 409 kts
2026-04-20 16:40 -24.55790 -69.05332 42471 ft 415 kts
2026-04-20 16:40 -24.52969 -69.04828 41929 ft 417 kts
2026-04-20 16:40 -24.50103 -69.04317 41376 ft 418 kts
2026-04-20 16:40 -24.47209 -69.03804 40820 ft 419 kts
2026-04-20 16:41 -24.44342 -69.03297 40271 ft 420 kts
2026-04-20 16:41 -24.41448 -69.02783 39714 ft 420 kts
2026-04-20 16:41 -24.38574 -69.02274 39162 ft 421 kts
2026-04-20 16:41 -24.35684 -69.01763 38567 ft 421 kts
2026-04-20 16:42 -24.32794 -69.01250 38000 ft 419 kts
2026-04-20 16:42 -24.29920 -69.00740 37447 ft 417 kts
2026-04-20 16:42 -24.27033 -69.00231 36893 ft 416 kts
2026-04-20 16:42 -24.24198 -68.99729 36356 ft 414 kts
2026-04-20 16:43 -24.21357 -68.99229 35797 ft 413 kts
2026-04-20 16:43 -24.18513 -68.98726 35250 ft 412 kts
2026-04-20 16:43 -24.15698 -68.98229 34704 ft 413 kts
2026-04-20 16:43 -24.12867 -68.97731 34161 ft 414 kts
2026-04-20 16:44 -24.10020 -68.97229 33574 ft 415 kts
2026-04-20 16:44 -24.07188 -68.96729 33025 ft 414 kts
2026-04-20 16:44 -24.04335 -68.96227 32474 ft 414 kts
2026-04-20 16:44 -24.01474 -68.95721 31923 ft 415 kts
2026-04-20 16:45 -23.98623 -68.95222 31372 ft 415 kts
2026-04-20 16:45 -23.95767 -68.94720 30817 ft 416 kts
2026-04-20 16:45 -23.92919 -68.94216 30272 ft 417 kts
2026-04-20 16:45 -23.90064 -68.93716 29680 ft 417 kts
2026-04-20 16:46 -23.87178 -68.93208 29115 ft 415 kts
2026-04-20 16:46 -23.84358 -68.92712 28567 ft 414 kts
2026-04-20 16:46 -23.81510 -68.92214 28023 ft 413 kts
2026-04-20 16:46 -23.78695 -68.91718 27477 ft 412 kts
2026-04-20 16:47 -23.75848 -68.91221 26930 ft 412 kts
2026-04-20 16:47 -23.73038 -68.90726 26388 ft 412 kts
2026-04-20 16:47 -23.70206 -68.90231 25840 ft 412 kts
2026-04-20 16:47 -23.67355 -68.89732 25293 ft 412 kts
2026-04-20 16:48 -23.64538 -68.89238 24751 ft 412 kts
2026-04-20 16:48 -23.61725 -68.88746 24212 ft 412 kts
2026-04-20 16:48 -23.58890 -68.88248 23661 ft 412 kts
2026-04-20 16:48 -23.56080 -68.87760 23079 ft 410 kts
2026-04-20 16:49 -23.53280 -68.87268 22540 ft 408 kts
2026-04-20 16:49 -23.50471 -68.86778 22003 ft 406 kts
2026-04-20 16:49 -23.47687 -68.86291 21470 ft 404 kts
2026-04-20 16:49 -23.44918 -68.85809 20938 ft 402 kts
2026-04-20 16:50 -23.42199 -68.85332 20420 ft 397 kts
2026-04-20 16:50 -23.39466 -68.84855 19892 ft 392 kts
2026-04-20 16:50 -23.36812 -68.84393 19385 ft 387 kts
2026-04-20 16:50 -23.34151 -68.83942 19059 ft 378 kts
2026-04-20 16:51 -23.31622 -68.83793 19094 ft 358 kts 356°
2026-04-20 16:51 -23.29165 -68.83845 19091 ft 353 kts 355°
2026-04-20 16:51 -23.26634 -68.83897 19094 ft 369 kts 357°
2026-04-20 16:51 -23.24039 -68.83774 19093 ft 374 kts
2026-04-20 16:52 -23.21473 -68.83627 19098 ft 372 kts 359°
2026-04-20 16:52 -23.18865 -68.83539 19102 ft 371 kts 358°
2026-04-20 16:52 -23.16299 -68.83478 19099 ft 370 kts 358°
2026-04-20 16:52 -23.13715 -68.83396 19099 ft 369 kts 359°
2026-04-20 16:53 -23.11171 -68.83296 19099 ft 369 kts 358°
2026-04-20 16:53 -23.08578 -68.83206 19102 ft 368 kts 358°
2026-04-20 16:53 -23.06033 -68.83125 19084 ft 368 kts 358°
2026-04-20 16:53 -23.03455 -68.83039 18755 ft 377 kts 358°
2026-04-20 16:54 -23.00802 -68.82949 18304 ft 381 kts 359°
2026-04-20 16:54 -22.98156 -68.82756 17813 ft 384 kts
2026-04-20 16:54 -22.95515 -68.82516 17364 ft 384 kts
2026-04-20 16:54 -22.92829 -68.82327 16899 ft 385 kts
2026-04-20 16:55 -22.90185 -68.82114 16439 ft 375 kts
2026-04-20 16:55 -22.87668 -68.81880 16004 ft 357 kts
2026-04-20 16:55 -22.85234 -68.81668 15509 ft 343 kts
2026-04-20 16:55 -22.82916 -68.81479 15087 ft 331 kts
2026-04-20 16:56 -22.80641 -68.81290 14698 ft 321 kts
2026-04-20 16:56 -22.78421 -68.81102 14300 ft 315 kts
2026-04-20 16:56 -22.76270 -68.80920 13937 ft 311 kts
2026-04-20 16:56 -22.74122 -68.80734 13536 ft 308 kts
2026-04-20 16:57 -22.72006 -68.80558 13167 ft 304 kts
2026-04-20 16:57 -22.69882 -68.80379 12801 ft 302 kts
2026-04-20 16:57 -22.67802 -68.80203 12436 ft 300 kts
2026-04-20 16:57 -22.65736 -68.80028 12083 ft 299 kts
2026-04-20 16:58 -22.63723 -68.79612 11722 ft 293 kts 18°
2026-04-20 16:58 -22.61892 -68.78820 11379 ft 272 kts 18°
2026-04-20 16:58 -22.60204 -68.78142 11080 ft 247 kts 18°
2026-04-20 16:58 -22.58650 -68.77512 10784 ft 229 kts 16°
2026-04-20 16:59 -22.57201 -68.76985 10539 ft 208 kts
2026-04-20 16:59 -22.55826 -68.76872 10291 ft 187 kts 353°
2026-04-20 16:59 -22.54670 -68.77068 10086 ft 148 kts 339°
2026-04-20 16:59 -22.53804 -68.77404 9898 ft 118 kts 328°
2026-04-20 17:00 -22.52496 -68.78296 9625 ft 114 kts 314°
2026-04-20 17:00 -22.51922 -68.78907 9471 ft 116 kts 306°
2026-04-20 17:00 -22.51442 -68.79593 9320 ft 113 kts 298°
2026-04-20 17:01 -22.51059 -68.80326 9172 ft 112 kts 292°
2026-04-20 17:01 -22.50784 -68.81102 9026 ft 110 kts 284°
2026-04-20 17:01 -22.50607 -68.81906 8884 ft 110 kts 277°
2026-04-20 17:01 -22.50548 -68.82454 8824 ft 108 kts 274°
2026-04-20 17:02 -22.50495 -68.83265 8802 ft 108 kts 273°
2026-04-20 17:02 -22.50455 -68.84069 8708 ft 110 kts 271°
2026-04-20 17:02 -22.50410 -68.84910 8523 ft 113 kts 275°
2026-04-20 17:02 -22.50316 -68.85776 8339 ft 113 kts 270°
2026-04-20 17:03 -22.50272 -68.86594 8171 ft 107 kts 271°
2026-04-20 17:03 -22.50219 -68.87392 8006 ft 109 kts 269°
2026-04-20 17:03 -22.50162 -68.88233 7842 ft 112 kts 270°
2026-04-20 17:03 -22.50107 -68.89036 7632 ft 100 kts 271°
2026-04-20 17:04 -22.50063 -68.89707 7574 ft 79 kts 276°
2026-04-20 17:04 -22.50024 -68.90240 7537 ft 61 kts 273°
2026-04-20 17:04 -22.50001 -68.90587 7507 ft 41 kts 274°
2026-04-20 17:04 -22.49980 -68.90778 7493 ft 14 kts 304°
2026-04-20 17:05 -22.49915 -68.90790 7491 ft 8 kts
2026-04-20 17:05 -22.49827 -68.90783 7497 ft 17 kts
2026-04-20 17:05 -22.49690 -68.90772 7494 ft 16 kts
2026-04-20 17:05 -22.49661 -68.90834 7492 ft 6 kts 287°
2026-04-20 17:06 -22.49635 -68.90840 7491 ft 7 kts
2026-04-20 17:06 -22.49601 -68.90838 7487 ft 2 kts
2026-04-20 17:06 -22.49598 -68.90838 7491 ft 0 kts